Tracking 23731 objects as of 27-Sep-2021
HD Live streaming from Space Station
objects crossing your sky now

XJS G

Track XJS G now!
10-day predictions


NORAD ID: 45611
Int'l Code: 2020-032A
Perigee: 476.2 km
Apogee: 486.4 km
Inclination: 35.0 °
Period: 94.1 minutes
Semi major axis: 6852 km
RCS: Unknown
Launch date: May 29, 2020
Source: People's Republic of China (PRC)
Launch site: Xichang Space Center, China (XSC)
aabbcc
Your satellite tracking list
Your tracking list is empty




NASA's NSSDC Master Catalog

Two Line Element Set (TLE):
1 45611U 20032A   21270.20570801  .00002794  00000-0  93449-4 0  9994
2 45611  35.0364 327.1802 0007496 185.5138  50.1467 15.30552316 74319
Source of the keplerian elements: AFSPC